Probability
0 0 0 0 0 0 0 0 0 0 0 0 0 0 0 0 0 0 0 0 0 0 0 0 0 0 0 0 0 0 0 0 0 0 0 0 0 0 0 0 0 0 0
0 0 0 0 0 0 0 0 0 0 0 0 0 0 0 0 0 0 0 0 0 0 0 0 0 0 0 0 0 0 0 0 0 0 0 0 0 0 0 0 0 0 0
0 0 0 0 0 0 0 0 0 0 0 0 0 0 0 0 0 0 0 0 0 0 0 0 0 0 0 0 0 0 0 0 0 0 0 0 0 0 0 0 0 0 0
0 0 0 0 0 0 0 0 0 0 0 0 0 0 0 0 0 0 0 0 0 0 0 0 0 0 0 0 0 0 0 0 0 0 0 0 0 0 0 0 0 0 0
0 0 0 0 0 0 0 0 0 0 0 0 0 0 0 0 0 0 0 0 0 0 0 0 0 0 0 0 0 0 0 0 0 0 0 0 0 0 0 0 0 0 0
0 0 0 0 0 0 0 0 0 0 0 0 0 0 0 0 0 0 0 0 0 0 0 0 0 0 0 0 0 0 0 0 0 0 0 0 0 0 0 0 0 0 0
0 0 0 0 0 0 0 0 0 0 0 0 0 0 0 0 0 0 0 0 0 0 0 0 0 0 0 0 0 0 0 0 0 0 0 0 0 0 0 0 0 0 0
0 0 0 0 0 0 0 0 0 0 0 0 0 0 0 0 0 0 0 0 0 0 0 0 0 0 0 0 0 0 0 0 0 0 0 0 0 0 0 0 0 0 0
0 0 0 0 0 0 0 0 0 0 0 0 0 0 0 0 0 0 0 0 0 0 0 0 0 0 0 0 0 0 0 0 0 0 0 0 0 0 0 0 0 0 0
0 0 0 0 0 0 0 0 0 0 0 0 0 0 0 0 0 0 0 0 0 0 0 0 0 0 0 0 0 0 0 0 0 0 0 0 0 0 0 0 0 0 0
0 0 0 0 0 0 0 0 0 0 0 0 0 0 0 0 0 0 0 0 0 0 0 0 0 0 0 0 0 0 0 0 0 0 0 0 0 0 0 0 0 0 0
0 0 0 0 0 0 0 0 0 0 0 0 0 0 0 0 0 0 0 0 0 0 0 0 0 0 0 0 0 0 0 0 0 0 0 0 0 0 0 0 0 0 0
0 0 0 0 0 0 0 0 0 0 0 0 0 0 0 0 0 0 0 0 0 0 0 0 0 0 0 0 0 0 0 0 0 0 0 0 0 0 0 0 0 0 0
0 0 0 0 0 0 0 0 0 0 0 0 0 0 0 0 0 0 0 0 0 0 0 0 0 0 0 0 0 0 0 0 0 0 0 0 0 0 0 0 0 0 0
0 0 0 0 0 0 0 0 0 0 0 0 0 0 0 0 0 0 0 0 0 0 0 0 0 0 0 0 0 0 0 0 0 0 0 0 0 0 0 0 0 0 0
0 0 0 0 0 0 0 0 0 0 0 0 0 0 0 0 0 0 0 0 0 0 0 0 0 0 0 0 0 0 0 0 0 0 0 0 0 0 0 0 0 0 0
0 0 0 0 0 0 0 0 0 0 0 0 0 0 0 0 0 0 0 0 0 0 0 0 0 0 0 0 0 0 0 0 0 0 0 0 0 0 0 0 0 0 0
0 0 0 0 0 0 0 0 0 0 0 0 0 0 0 0 0 0 0 0 0 0 0 0 0 0 0 0 0 0 0 0 0 0 0 0 0 0 0 0 0 0 0
0 0 0 0 0 0 0 0 0 0 0 0 0 0 0 0 0 0 0 0 0 0 0 0 0 0 0 0 0 0 0 0 0 0 0 0 0 0 0 0 0 0 0
0 0 0 0 0 0 0 0 0 0 0 0 0 0 0 0 0 0 0 0 0 0 0 0 0 0 0 0 0 0 0 0 0 0 0 0 0 0 0 0 0 0 0
0 0 0 0 0 0 0 0 0 0 0 0 0 0 0 0 0 0 0 0 0 0 0 0 0 0 0 0 0 0 0 0 0 0 0 0 0 0 0 0 0 0 0
0 0 0 0 0 0 0 0 0 0 0 0 0 0 0 0 0 0 0 0 0 0 0 0 0 0 0 0 0 0 0 0 0 0 0 0 0 0 0 0 0 0 0
0 0 0 0 0 0 0 0 0 0 0 0 0 0 0 0 0 0 0 0 0 0 0 0 0 0 0 0 0 0 0 0 0 0 0 0 0 0 0 0 0 0 0
0 0 0 0 0 0 0 0 0 0 0 0 0 0 0 0 0 0 0 0 0 0 0 0 0 0 0 0 0 0 0 0 0 0 0 0 0 0 0 0 0 0 0
0 0 0 0 0 0 0 0 0 0 0 0 0 0 0 0 0 0 0 0 0 0 0 0 0 0 0 0 0 0 0 0 0 0 0 0 0 0 0 0 0 0 0
0 0 0 0 0 0 0 0 0 0 0 0 0 0 0 0 0 0 0 0 0 0 0 0 0 0 0 0 0 0 0 0 0 0 0 0 0 0 0 0 0 0 0
Height
5801 5801 5800 5800 5798 5797 5795 5792 5790 5789 5787 5785 5782 5780 5779 5776 5773 5770 5767 5765 5763 5761 5759 5758 5756 5754 5753 5751 5750 5749 5748 5747 5746 5745 5745 5744 5744 5744 5744 5744 5745 5745 5745
5795 5795 5795 5794 5792 5791 5789 5787 5785 5783 5781 5778 5775 5773 5771 5767 5764 5762 5759 5757 5755 5753 5752 5750 5748 5746 5744 5742 5741 5739 5737 5736 5735 5734 5733 5733 5732 5732 5732 5732 5732 5732 5733
5789 5790 5789 5788 5786 5785 5783 5781 5779 5777 5775 5771 5767 5765 5762 5758 5756 5753 5751 5749 5747 5745 5743 5741 5739 5737 5735 5733 5731 5729 5727 5725 5724 5722 5721 5720 5719 5718 5718 5718 5718 5718 5718
5784 5784 5783 5781 5780 5779 5777 5775 5773 5771 5768 5764 5760 5756 5753 5750 5747 5744 5742 5740 5738 5736 5733 5731 5729 5726 5724 5722 5719 5717 5714 5712 5709 5708 5706 5705 5704 5702 5701 5701 5701 5701 5702
5777 5777 5776 5775 5773 5772 5770 5768 5766 5763 5760 5755 5751 5748 5744 5741 5738 5736 5734 5731 5729 5726 5723 5720 5717 5714 5711 5708 5705 5702 5699 5696 5693 5691 5689 5687 5685 5684 5683 5683 5683 5683 5683
5771 5770 5769 5768 5767 5765 5763 5761 5758 5755 5752 5747 5743 5739 5736 5733 5730 5728 5725 5722 5718 5715 5711 5708 5704 5701 5697 5693 5689 5686 5683 5679 5676 5674 5671 5669 5667 5666 5665 5664 5664 5663 5663
5764 5763 5762 5761 5760 5758 5755 5753 5750 5747 5743 5739 5735 5731 5728 5725 5721 5718 5715 5710 5706 5702 5697 5693 5689 5685 5681 5676 5672 5668 5664 5661 5658 5655 5652 5650 5648 5646 5645 5644 5643 5643 5642
5757 5756 5755 5754 5752 5750 5747 5744 5741 5737 5734 5730 5727 5724 5720 5717 5711 5707 5702 5698 5693 5688 5682 5677 5672 5668 5663 5658 5654 5649 5645 5641 5638 5635 5632 5629 5627 5625 5623 5621 5620 5619 5619
5750 5749 5748 5746 5744 5741 5738 5735 5731 5727 5724 5720 5717 5714 5711 5708 5706 5702 5693 5686 5680 5674 5667 5662 5656 5650 5645 5640 5636 5631 5627 5622 5618 5614 5610 5607 5604 5601 5598 5596 5594 5592 5592
5743 5742 5740 5738 5735 5731 5728 5724 5721 5717 5713 5709 5705 5700 5696 5692 5689 5688 5686 5677 5670 5663 5656 5649 5642 5635 5628 5623 5618 5612 5607 5602 5597 5591 5585 5581 5576 5572 5569 5566 5563 5562 5561
5735 5734 5732 5728 5725 5721 5718 5714 5710 5706 5702 5698 5693 5688 5682 5677 5670 5666 5666 5662 5656 5648 5640 5633 5626 5618 5611 5605 5598 5592 5585 5579 5572 5566 5559 5552 5546 5540 5535 5531 5527 5525 5524
5727 5725 5722 5719 5715 5712 5708 5703 5699 5694 5690 5685 5679 5674 5668 5663 5656 5650 5646 5643 5639 5633 5624 5616 5608 5599 5591 5583 5576 5568 5560 5552 5544 5536 5528 5520 5512 5506 5500 5494 5489 5485 5483
5718 5716 5713 5709 5705 5702 5698 5693 5688 5683 5678 5672 5666 5659 5652 5645 5638 5631 5625 5621 5617 5613 5606 5598 5588 5577 5567 5558 5548 5538 5529 5519 5509 5500 5490 5481 5472 5464 5458 5452 5446 5442 5440
5709 5706 5703 5699 5696 5692 5687 5682 5677 5672 5665 5659 5652 5645 5637 5629 5621 5613 5604 5598 5594 5592 5585 5576 5565 5551 5538 5527 5515 5503 5492 5480 5468 5457 5446 5435 5426 5417 5411 5405 5401 5398 5396
5700 5696 5693 5689 5686 5681 5677 5671 5666 5660 5653 5646 5638 5630 5622 5613 5603 5594 5584 5575 5567 5563 5561 5554 5540 5527 5510 5494 5478 5463 5449 5436 5423 5410 5399 5389 5381 5374 5369 5365 5363 5361 5360
5690 5687 5683 5680 5675 5671 5665 5660 5654 5647 5640 5632 5623 5615 5605 5596 5586 5575 5566 5556 5544 5535 5530 5527 5514 5499 5480 5459 5439 5419 5402 5387 5373 5362 5353 5347 5342 5339 5336 5335 5334 5333 5333
5681 5678 5674 5670 5665 5659 5653 5647 5640 5633 5625 5617 5608 5599 5589 5578 5569 5558 5548 5537 5524 5510 5501 5497 5484 5467 5448 5425 5404 5383 5363 5347 5335 5326 5318 5312 5308 5306 5305 5306 5307 5308 5309
5672 5668 5664 5659 5653 5647 5641 5634 5627 5619 5610 5601 5592 5582 5572 5562 5552 5541 5529 5516 5501 5485 5468 5457 5449 5431 5412 5388 5369 5352 5336 5320 5307 5298 5290 5284 5281 5279 5279 5281 5282 5284 5285
5662 5658 5653 5648 5641 5635 5628 5621 5613 5604 5595 5585 5575 5566 5556 5545 5534 5521 5508 5493 5476 5458 5438 5419 5406 5391 5376 5358 5342 5330 5316 5303 5290 5280 5272 5268 5264 5262 5261 5262 5262 5263 5264
5652 5647 5642 5636 5629 5622 5614 5607 5598 5589 5579 5569 5559 5550 5539 5527 5514 5501 5485 5468 5449 5431 5410 5390 5374 5361 5349 5337 5324 5313 5304 5293 5281 5270 5264 5259 5255 5252 5249 5248 5247 5247 5246
5642 5636 5630 5623 5616 5609 5600 5592 5583 5574 5564 5554 5544 5533 5521 5508 5493 5477 5460 5441 5421 5401 5383 5368 5355 5343 5333 5323 5313 5303 5295 5287 5276 5265 5260 5254 5248 5244 5240 5236 5234 5231 5229
5631 5625 5618 5611 5604 5595 5586 5577 5568 5559 5549 5539 5528 5516 5503 5488 5471 5455 5436 5415 5393 5374 5361 5351 5341 5331 5322 5313 5305 5295 5287 5279 5272 5264 5257 5251 5243 5239 5233 5228 5224 5219 5216
5620 5613 5607 5599 5591 5582 5572 5563 5554 5545 5534 5522 5510 5497 5483 5465 5447 5430 5413 5394 5376 5359 5347 5338 5331 5322 5314 5306 5298 5290 5282 5273 5265 5257 5253 5248 5240 5233 5226 5219 5214 5210 5206
5609 5602 5594 5586 5578 5569 5559 5550 5541 5530 5518 5505 5490 5475 5460 5443 5424 5406 5391 5377 5362 5348 5338 5330 5321 5314 5306 5299 5291 5284 5277 5271 5263 5253 5245 5241 5234 5226 5218 5211 5205 5202 5200
5597 5590 5582 5574 5565 5556 5546 5536 5526 5515 5502 5488 5471 5453 5436 5421 5404 5386 5372 5361 5350 5340 5330 5322 5314 5306 5299 5292 5285 5279 5273 5267 5261 5252 5241 5233 5225 5219 5211 5203 5198 5195 5193
5585 5578 5569 5561 5552 5543 5533 5522 5510 5499 5486 5471 5453 5433 5414 5396 5380 5366 5356 5348 5340 5332 5325 5317 5309 5302 5295 5288 5280 5273 5266 5260 5255 5248 5239 5230 5220 5212 5206 5197 5193 5190 5187
Wind_Speed
26 26 29 30 32 32 30 26 25 26 27 29 31 33 35 37 38 38 37 36 36 36 36 37 38 39 40 41 41 41 41 41 42 42 43 43 44 44 45 45 46 46 47
27 28 29 31 32 31 28 25 26 28 31 33 35 37 39 40 40 39 38 37 38 38 39 39 40 41 42 43 44 44 45 45 46 46 47 47 48 48 49 49 50 51 51
26 28 30 31 32 30 28 27 29 31 35 38 40 42 44 44 43 40 38 38 39 39 40 41 42 43 44 45 47 48 49 50 51 52 53 54 55 55 56 56 57 58 58
24 27 29 31 32 31 30 30 32 35 38 41 43 44 44 43 41 39 38 38 39 40 42 43 45 46 47 49 50 51 53 55 56 58 59 60 61 62 62 63 63 63 64
24 28 31 32 32 31 31 32 35 38 40 41 42 41 40 39 38 38 39 40 41 43 45 46 48 49 51 53 55 56 58 59 61 62 63 63 64 65 65 66 67 67 68
26 30 32 32 30 30 32 35 38 39 40 40 40 39 37 38 39 40 42 44 45 47 48 50 52 54 56 58 60 61 62 63 63 64 64 64 65 65 66 66 67 68 69
28 30 31 30 31 32 35 38 40 41 40 39 38 39 40 40 42 43 45 47 50 52 54 56 58 59 61 62 63 64 64 64 64 63 64 64 65 66 67 67 68 69 70
30 32 32 32 34 36 38 40 42 42 41 40 39 40 41 43 45 48 50 52 55 58 60 61 62 64 65 65 65 64 64 65 66 66 68 69 70 71 73 74 75 75 76
33 35 35 36 37 39 41 42 43 43 43 42 42 43 44 44 45 47 52 56 59 61 63 64 65 65 65 65 65 66 67 69 71 73 76 77 79 80 82 83 84 84 85
37 38 39 40 41 43 43 43 43 43 43 44 45 47 50 52 53 52 53 57 60 61 61 62 63 63 65 67 69 71 73 76 79 82 84 86 88 90 91 92 94 94 94
40 41 42 43 44 44 44 44 43 43 44 47 49 52 54 57 60 62 60 60 61 61 61 62 63 65 67 71 74 77 81 83 86 89 92 95 98 100 102 103 104 105 106
42 43 44 45 44 44 44 44 43 45 48 51 54 57 60 62 64 66 66 65 65 64 64 65 67 70 74 78 81 85 89 92 95 98 102 105 108 110 113 114 116 117 118
42 43 45 45 43 44 44 44 45 48 52 56 59 62 65 67 69 71 72 70 69 69 70 71 74 78 82 86 90 94 98 103 106 110 113 117 119 121 122 123 123 123 122
42 44 45 44 43 44 44 46 49 52 56 60 63 66 69 71 74 75 75 75 74 73 74 76 80 85 91 96 101 106 110 115 119 122 124 126 125 124 121 117 114 110 107
42 43 43 43 44 44 46 49 52 56 59 63 66 69 72 75 76 76 76 77 79 80 80 81 87 93 100 107 113 118 123 126 127 125 121 117 111 104 98 93 90 87 85
41 42 42 43 45 47 49 52 56 59 63 66 69 72 75 77 76 76 77 79 83 86 89 91 97 103 110 117 123 127 127 124 119 112 105 98 92 86 82 78 76 74 73
41 41 43 45 48 51 53 56 59 63 65 69 72 76 76 76 75 77 80 84 89 95 100 101 106 111 117 120 120 116 111 105 100 94 89 85 81 77 74 72 70 69 68
41 42 44 48 51 54 57 60 62 64 68 72 75 76 75 75 77 80 85 91 97 103 109 112 114 115 112 107 100 93 87 83 79 75 71 68 64 62 61 60 61 61 62
41 44 48 51 54 57 59 60 63 67 72 74 74 74 75 77 81 86 92 98 103 109 114 117 113 105 94 84 76 68 63 59 56 55 52 49 47 46 46 47 48 50 50
44 48 51 54 56 57 60 64 68 71 73 72 72 74 77 81 86 92 98 104 110 112 111 106 97 83 70 60 55 49 43 41 40 41 40 38 37 37 38 39 40 41 42
47 51 54 55 56 60 64 68 70 71 70 71 73 76 81 87 92 98 105 110 110 106 97 87 74 61 52 46 41 38 35 33 34 37 34 34 35 35 36 36 36 36 37
50 52 54 56 60 64 67 70 70 69 71 73 76 81 87 93 98 104 109 108 100 90 79 66 56 48 43 39 37 34 33 31 30 32 31 31 33 33 35 36 36 35 34
51 54 57 60 63 66 69 69 68 70 72 76 82 87 93 98 104 107 105 94 81 70 61 53 47 42 38 36 33 30 29 29 30 32 29 27 31 33 35 36 34 30 27
54 56 59 62 65 66 66 67 69 71 76 82 88 93 98 102 105 103 92 78 63 54 49 46 44 40 36 34 32 29 27 25 28 34 35 32 32 33 34 34 30 24 20
54 57 60 63 64 63 65 67 71 75 81 87 93 98 102 104 100 90 76 61 49 43 42 42 40 37 36 35 34 32 29 26 26 31 36 36 35 32 31 30 25 19 17
55 58 61 61 61 63 66 70 75 80 86 91 96 100 102 97 85 72 59 47 39 38 37 36 35 34 35 34 35 35 33 31 31 31 33 33 32 29 25 26 20 16 15
Wind_Direction
274 280 284 288 295 299 300 301 303 302 301 300 301 302 303 301 300 299 297 294 292 291 290 289 289 289 289 288 288 287 286 285 285 284 283 283 281 280 279 277 276 275 274
274 279 283 288 293 294 293 294 298 300 301 302 301 302 301 300 298 296 294 291 289 288 287 287 286 286 285 285 285 285 284 284 283 282 282 280 279 278 277 276 275 274 273
274 278 282 287 289 288 286 289 295 298 299 299 299 299 299 298 297 295 292 290 288 288 287 287 286 285 284 283 283 283 282 282 281 280 280 279 279 278 276 275 274 273 272
272 278 282 286 287 285 284 288 292 294 296 298 298 298 298 297 296 294 291 290 289 288 287 287 286 286 286 285 285 285 284 283 282 281 281 280 279 278 277 276 275 273 272
273 278 281 285 286 284 285 287 290 294 297 299 300 299 298 297 295 293 291 290 289 288 288 288 288 288 288 288 287 287 286 285 284 283 282 281 279 278 277 276 275 273 272
275 279 281 283 284 285 287 289 292 295 298 299 299 298 297 295 294 293 293 292 291 291 291 291 291 290 290 290 289 288 287 286 285 284 282 281 280 278 277 276 275 273 272
276 281 282 281 283 286 289 292 295 297 298 298 297 296 295 294 294 294 295 295 295 295 294 293 292 292 291 291 290 289 288 287 285 284 283 281 280 279 278 277 275 273 272
276 281 283 283 286 290 293 295 297 298 298 297 295 293 293 296 298 299 298 297 297 297 296 295 294 294 293 292 291 290 288 287 286 285 283 283 282 281 279 278 276 274 272
277 280 283 286 290 294 296 297 298 298 297 296 294 294 294 294 294 295 297 298 298 298 297 296 295 294 293 291 289 288 286 285 285 284 283 282 281 280 279 278 276 275 273
277 280 283 287 291 294 296 297 297 297 297 297 298 298 298 298 297 295 294 295 295 295 294 293 292 290 289 288 287 286 285 285 284 284 284 283 282 281 280 279 278 276 275
277 280 284 288 292 295 296 297 297 298 298 299 300 300 300 299 299 298 298 297 297 296 294 292 290 288 288 287 287 286 285 285 285 284 284 284 283 283 282 281 280 279 278
277 280 284 289 293 295 296 297 298 299 300 301 301 300 300 299 300 300 300 299 297 296 293 291 289 289 288 288 288 288 287 287 286 286 285 285 284 284 283 282 281 280 279
278 281 286 290 293 294 296 297 299 300 300 300 300 300 301 302 303 303 302 301 299 297 295 294 292 291 291 291 291 291 290 290 289 288 288 287 286 284 283 282 281 280 278
280 284 288 291 293 295 297 298 299 299 299 299 300 301 302 303 304 304 303 301 299 297 296 296 296 296 296 295 295 294 293 292 291 290 289 287 286 284 283 281 280 278 276
282 286 290 292 294 297 299 299 299 298 298 300 301 303 304 305 305 305 303 302 301 300 299 300 300 299 299 298 297 296 295 293 292 290 288 286 284 282 280 278 276 274 273
285 289 292 294 296 299 299 299 299 298 300 301 303 304 306 306 305 304 303 303 303 303 303 304 302 301 300 299 298 297 296 295 293 291 288 285 282 279 276 274 272 270 269
288 290 293 296 299 300 300 299 299 300 302 303 305 306 306 306 305 305 305 306 306 306 305 305 304 303 302 300 299 297 296 294 293 291 289 286 283 279 276 273 271 269 269
289 292 296 298 300 300 300 301 302 303 304 305 306 306 306 306 307 307 307 308 308 308 307 307 306 305 303 301 299 298 297 296 295 293 291 288 285 282 278 275 272 271 271
293 296 298 299 300 302 303 304 305 305 306 306 307 307 307 308 309 309 310 310 310 310 309 309 308 307 306 304 302 302 302 301 301 299 297 295 292 288 285 281 278 276 276
296 298 299 301 302 304 305 306 306 307 307 307 308 309 309 310 310 311 311 312 312 311 310 309 309 310 310 308 309 309 310 309 308 305 305 304 301 297 294 290 287 284 281
298 299 301 303 305 306 307 307 307 308 308 309 309 310 311 311 312 313 314 314 313 312 311 311 313 314 314 315 316 316 316 315 312 310 313 310 307 305 302 299 297 293 289
299 302 303 305 306 307 307 307 308 309 309 310 310 311 312 313 314 315 316 316 314 313 313 315 317 318 319 319 321 321 321 320 316 314 317 314 310 309 305 304 301 298 296
301 303 304 306 306 307 308 308 309 310 310 311 312 312 314 315 316 317 317 315 314 313 314 317 320 321 321 323 326 327 326 324 321 321 323 321 314 311 307 305 305 303 300
302 304 305 306 307 307 308 309 310 311 311 312 313 315 316 317 317 317 316 315 315 314 316 318 321 323 325 328 329 331 331 329 326 324 326 327 321 316 310 307 307 303 300
303 304 305 306 307 308 309 310 311 312 313 314 316 316 317 317 317 316 316 316 315 315 317 319 321 324 327 330 331 331 332 334 335 330 329 329 326 325 317 312 311 303 294
304 305 306 307 308 309 310 310 311 313 315 316 317 318 318 318 317 316 317 317 315 316 318 320 322 324 326 328 330 332 335 338 340 339 336 335 333 333 330 323 320 311 298